Tracking 19286 objects as of 19-Nov-2018
HD Live streaming from Space Station
objects crossing your sky now

SS 1

Track SS 1 now!
10-day predictions
SS 1 is classified as:


NORAD ID: 10529
Int'l Code: 1977-112D
Perigee: 396.3 km
Apogee: 1,539.7 km
Inclination: 63.3 °
Period: 104.3 minutes
Semi major axis: 7339 km
RCS: Unknown
Launch date: December 8, 1977
Source: United States (US)
Launch site: AIR FORCE WESTERN TEST RANGE (AFWTR)
aabbcc
Your satellite tracking list
Your tracking list is empty




NASA's NSSDC Master Catalog

Two Line Element Set (TLE):
1 10529U 77112D   18308.69391302 0.00000500  00000-0  38241-4 0    08
2 10529  63.2553 167.8748 0778998 113.7244 246.2756 13.80843217    03
Source of the keplerian elements: McCants